Location: Unspecified
(0.0000°N, 0.0000°E)
Time: 18:59:55
(UTC+00:00)

LightSail 2 - Pass Details

Date: 20 November 2019
Orbit: 695 x 731 km, 24.0° (Epoch: 05 December)

Event Time Altitude Azimuth Distance (km) Brightness Sun altitude
Exits shadow 05:18:40 - 323° (NW) 2,887 7.8 -6.3°
Reaches altitude 10° 05:21:05 10° 338° (NNW) 2,198 7.3 -5.7°
Maximum altitude 05:24:40 19° 22° (NNE) 1,699 7.2 -4.9°
Drops below altitude 10° 05:28:16 10° 66° (ENE) 2,210 8.4 -4.1°
Sets 05:31:25 0° 84° (E) 3,135 9.8 -3.3°
